Starlink 1230

operational
NORAD ID: 45189 Int'l Des: 2020-012 Owner: SPXS Country: US Constellation: starlink
LEOCIRCULARSTARLINK_TYPE

About Starlink 1230

Description loading...

Live Position

Loading 3D Globe...

Upcoming Passes

Altitude History

Altitude vs Time

uPlot chart will show altitude changes over time

Two-Line Element Set

1 45189U 20012M 26035.25004628 .00049692 00000-0 16806-2 0 9998
2 45189 53.1603 195.0505 0001017 82.2557 309.7366 15.30162901 5782
Epoch: Feb 4, 2026 • Age: 6 hours

Current Status

Altitude 475.7 km
Velocity 7.63 km/s
Sub-Earth Point 23.72°N, 105.67°W
Launch Date Feb 17, 2020
Age 5.9 years
Type internet

Technical Details

Classification Payload
Mass 260.00 kg
Dry Mass 248.00 kg
Total Mass 260.00 kg
Length 0.20 m
Diameter 2.80 m
Span 9.00 m
Shape Box + pan
Manufacturer SPXS
Bus Type Starlink
Phase Status In Orbit
Owner/State SPXS/US

Large Constellations

Loading constellations...